Home > Time Zones > World Clock > Weather > Italy > Genoa > Past weeks

Flag for Italy Weather past 2 weeks in Genoa, Italy

Now
59 °F

Sunny.


Feels Like: 59 °F
Forecast: 50 / 66 °F
Wind: 2 mph from North

Location: Genova / Sestri

Current Time: Apr 21, 2015 at 9:38:09 PM

Latest Report: Apr 21, 2015 at 8:50 PM


Visibility: 10 mi

Pressure: 30.21 "Hg

Humidity: 88%

Dew point: 55 °F

Location of GenoaLocation

Historic Weather in Genoa — Graph

°F

Genoa temperature yesterday

Maximum temperature yesterday: 68 °F (at 12:20 PM)
Minimum temperature yesterday: 54 °F (at 5:50 AM)
Average temperature yesterday: 59 °F

Past Weeks' High & Low Weather Summary

 TemperatureHumidityPressure
High68 °F (Apr 20, 12:20 PM)94% (Apr 15, 1:50 AM)30.42 "Hg (Apr 15, 1:50 AM)
Low46 °F (Apr 7, 7:20 AM)11% (Apr 7, 2:20 PM)29.92 "Hg (Apr 18, 3:20 AM)
Average58 °F69%30.23 "Hg
* Reported Apr 6 8:20 PM — Apr 21 8:20 PM, Genoa, Weather by CustomWeather, © 2015

Note: Actual official high and low records may vary slightly from our data, if they occured in-between our weather recording intervals... More about our weather records

Advertising

Genoa weather history for previous 24 hours

 ConditionsComfort  
Time TempWeatherWind HumidityBarometerVisibility
8:20 PM
Tue, Apr 21
61 °FSunny.2 mph83%30.21 "Hg10 mi
7:50 PM61 °FSunny.No wind83%30.21 "Hg10 mi
7:20 PM63 °FSunny.3 mph77%30.21 "Hg10 mi
6:50 PM63 °FSunny.5 mph77%30.21 "Hg10 mi
6:20 PM63 °FPassing clouds.5 mph73%30.21 "HgN/A
5:50 PM63 °FSunny.7 mph77%30.21 "Hg10 mi
5:20 PM64 °FSunny.6 mph68%30.21 "Hg10 mi
4:50 PM63 °FPassing clouds.5 mph77%30.21 "HgN/A
4:20 PM63 °FPassing clouds.3 mph77%30.24 "HgN/A
3:50 PM63 °FSunny.5 mph77%30.24 "Hg10 mi
3:20 PM63 °FPassing clouds.5 mph83%30.24 "HgN/A
2:50 PM63 °FSunny.5 mph77%30.24 "Hg10 mi
2:20 PM64 °FPassing clouds.5 mph73%30.24 "HgN/A
1:50 PM63 °FPassing clouds.5 mph83%30.24 "HgN/A
1:20 PM64 °FSunny.5 mph73%30.24 "Hg10 mi
12:50 PM63 °FSunny.5 mph77%30.27 "Hg10 mi
12:20 PM63 °FSunny.7 mph77%30.27 "Hg10 mi
11:50 AM63 °FPassing clouds.3 mph73%30.27 "HgN/A
11:20 AM63 °FPassing clouds.3 mph73%30.24 "HgN/A
10:50 AM63 °FPassing clouds.3 mph77%30.24 "HgN/A
10:20 AM61 °FSunny.5 mph77%30.24 "Hg10 mi
9:50 AM61 °FPassing clouds.6 mph77%30.24 "HgN/A
9:20 AM61 °FSunny.6 mph68%30.24 "Hg10 mi
8:50 AM61 °FSunny.2 mph63%30.24 "Hg10 mi
8:20 AM57 °FSunny.5 mph55%30.21 "Hg10 mi
7:50 AM55 °FSunny.5 mph55%30.21 "Hg10 mi
7:20 AM54 °FClear.6 mph58%30.21 "Hg10 mi
6:50 AM52 °FPassing clouds.5 mph62%30.18 "HgN/A
6:20 AM52 °FPassing clouds.3 mph62%30.18 "HgN/A
5:50 AM52 °FPassing clouds.3 mph62%30.15 "HgN/A
5:20 AM52 °FClear.3 mph58%30.15 "Hg10 mi
4:50 AM54 °FClear.5 mph58%30.15 "Hg10 mi
4:20 AM54 °FClear.5 mph58%30.15 "Hg10 mi
3:50 AM54 °FClear.6 mph63%30.15 "Hg10 mi
3:20 AM54 °FClear.6 mph63%30.15 "Hg10 mi
2:50 AM54 °FClear.5 mph63%30.15 "Hg10 mi
2:20 AM54 °FPassing clouds.3 mph67%30.12 "HgN/A
1:50 AM55 °FClear.5 mph67%30.12 "Hg10 mi
1:20 AM55 °FClear.5 mph67%30.12 "Hg10 mi
12:50 AM55 °FClear.6 mph72%30.12 "Hg10 mi
12:20 AM55 °FClear.6 mph72%30.12 "Hg10 mi
11:50 PM
Mon, Apr 20
55 °FPassing clouds.5 mph72%30.12 "HgN/A
11:20 PM55 °FClear.6 mph72%30.12 "Hg10 mi
10:50 PM55 °FClear.5 mph77%30.12 "Hg10 mi
10:20 PM57 °FClear.5 mph72%30.12 "Hg10 mi
9:50 PM57 °FClear.6 mph67%30.12 "Hg10 mi
9:20 PM59 °FPassing clouds.3 mph68%30.09 "HgN/A
Weather by CustomWeather, © 2015

See weather overviewHow to use our weather pages